Previsão horária em Santarém

Hoje, 13 Abril, Terça-feira

Tempo Temperatura Precipitação Vento Pressão Humidade
00:00 +15°C° 0.2 mm 1 m/s 763 mmHg 80%
01:00 +15°C° 0.2 mm 1 m/s 763 mmHg 82%
02:00 +13°C° 0.2 mm 0 m/s 763 mmHg 85%
03:00 +14°C° 0.1 mm 1 m/s 763 mmHg 85%
04:00 +14°C° 0.1 mm 1 m/s 763 mmHg 85%
05:00 +14°C° 0 mm 1 m/s 762 mmHg 88%
06:00 +15°C° 0.2 mm 1 m/s 762 mmHg 86%
07:00 +15°C° 0.2 mm 1 m/s 763 mmHg 84%
08:00 +16°C° 0.2 mm 2 m/s 763 mmHg 82%
09:00 +16°C° 0.5 mm 2 m/s 763 mmHg 80%
10:00 +17°C° 0.5 mm 2 m/s 763 mmHg 78%
11:00 +18°C° 0.5 mm 2 m/s 763 mmHg 76%
12:00 +19°C° 0 mm 2 m/s 762 mmHg 71%
13:00 +20°C° 0 mm 2 m/s 762 mmHg 67%
14:00 +21°C° 0 mm 2 m/s 761 mmHg 62%
15:00 +24°C° 0 mm 2 m/s 761 mmHg 56%
16:00 +23°C° 0 mm 2 m/s 761 mmHg 60%
17:00 +21°C° 0 mm 2 m/s 761 mmHg 65%
18:00 +20°C° 0 mm 2 m/s 761 mmHg 71%
19:00 +19°C° 0 mm 1 m/s 761 mmHg 77%
20:00 +16°C° 0 mm 1 m/s 761 mmHg 82%
21:00 +16°C° 0 mm 1 m/s 761 mmHg 85%
22:00 +16°C° 0 mm 1 m/s 761 mmHg 87%
23:00 +15°C° 0 mm 1 m/s 760 mmHg 89%

Amanhã, 14 Abril, Quarta-feira

Tempo Temperatura Precipitação Vento Pressão Humidade
00:00 +15°C° 0 mm 1 m/s 760 mmHg 90%
01:00 +15°C° 0 mm 1 m/s 760 mmHg 90%
02:00 +15°C° 0 mm 1 m/s 759 mmHg 91%
03:00 +15°C° 0.1 mm 1 m/s 759 mmHg 92%
04:00 +14°C° 0.1 mm 1 m/s 759 mmHg 92%
05:00 +14°C° 0.1 mm 1 m/s 759 mmHg 93%
06:00 +15°C° 0.1 mm 1 m/s 759 mmHg 86%
07:00 +17°C° 0.1 mm 2 m/s 759 mmHg 80%
08:00 +18°C° 0.1 mm 2 m/s 759 mmHg 74%
09:00 +20°C° 0.1 mm 2 m/s 759 mmHg 69%
10:00 +21°C° 0.1 mm 2 m/s 758 mmHg 64%
11:00 +23°C° 0.1 mm 2 m/s 758 mmHg 59%
12:00 +23°C° 0.7 mm 2 m/s 758 mmHg 65%
13:00 +21°C° 0.7 mm 2 m/s 757 mmHg 70%
14:00 +20°C° 0.7 mm 3 m/s 757 mmHg 76%
15:00 +19°C° 0.7 mm 3 m/s 757 mmHg 81%
16:00 +18°C° 0.7 mm 3 m/s 757 mmHg 85%
17:00 +17°C° 0.7 mm 3 m/s 757 mmHg 89%
18:00 +17°C° 0.6 mm 2 m/s 757 mmHg 91%
19:00 +16°C° 0.6 mm 2 m/s 758 mmHg 94%
20:00 +16°C° 0.6 mm 1 m/s 758 mmHg 96%
21:00 +16°C° 0.2 mm 1 m/s 758 mmHg 96%
22:00 +16°C° 0.2 mm 1 m/s 757 mmHg 97%
23:00 +16°C° 0.2 mm 1 m/s 757 mmHg 97%

Depois de amanhã, 15 Abril, Quinta-feira

Tempo Temperatura Precipitação Vento Pressão Humidade
00:00 +16°C° 0.5 mm 1 m/s 757 mmHg 97%
01:00 +16°C° 0.5 mm 1 m/s 757 mmHg 97%
02:00 +16°C° 0.5 mm 1 m/s 757 mmHg 98%
03:00 +16°C° 0.6 mm 1 m/s 757 mmHg 98%
04:00 +16°C° 0.6 mm 1 m/s 757 mmHg 98%
05:00 +16°C° 0.6 mm 1 m/s 757 mmHg 98%
06:00 +16°C° 0.7 mm 1 m/s 757 mmHg 97%
07:00 +16°C° 0.7 mm 1 m/s 757 mmHg 96%
08:00 +16°C° 0.7 mm 1 m/s 757 mmHg 95%
09:00 +17°C° 0.2 mm 2 m/s 758 mmHg 93%
10:00 +17°C° 0.2 mm 2 m/s 758 mmHg 91%
11:00 +17°C° 0.2 mm 3 m/s 758 mmHg 88%
12:00 +18°C° 0.3 mm 2 m/s 757 mmHg 82%
13:00 +20°C° 0.3 mm 2 m/s 757 mmHg 76%
14:00 +21°C° 0.3 mm 2 m/s 757 mmHg 69%
15:00 +21°C° 0.6 mm 1 m/s 757 mmHg 73%
16:00 +21°C° 0.6 mm 1 m/s 757 mmHg 76%
17:00 +21°C° 0.6 mm 1 m/s 757 mmHg 79%
18:00 +19°C° 0.2 mm 1 m/s 758 mmHg 83%
19:00 +18°C° 0.2 mm 1 m/s 758 mmHg 87%
20:00 +16°C° 0.2 mm 2 m/s 759 mmHg 92%
21:00 +15°C° 0 mm 1 m/s 759 mmHg 92%
22:00 +15°C° 0 mm 1 m/s 759 mmHg 92%
23:00 +14°C° 0 mm 1 m/s 759 mmHg 92%

16 Abril, Sexta-feira

Tempo Temperatura Precipitação Vento Pressão Humidade
00:00 +14°C° 0 mm 1 m/s 759 mmHg 91%
01:00 +14°C° 0 mm 1 m/s 759 mmHg 91%
02:00 +14°C° 0 mm 1 m/s 759 mmHg 91%
03:00 +13°C° 0 mm 1 m/s 759 mmHg 91%
04:00 +13°C° 0 mm 1 m/s 759 mmHg 91%
05:00 +12°C° 0 mm 0 m/s 759 mmHg 91%
06:00 +15°C° 0 mm 1 m/s 759 mmHg 84%
07:00 +18°C° 0 mm 1 m/s 759 mmHg 78%
08:00 +20°C° 0 mm 1 m/s 760 mmHg 72%
09:00 +21°C° 0 mm 1 m/s 759 mmHg 65%
10:00 +23°C° 0 mm 2 m/s 759 mmHg 59%
11:00 +24°C° 0 mm 2 m/s 759 mmHg 52%
12:00 +24°C° 0 mm 3 m/s 759 mmHg 52%
13:00 +23°C° 0 mm 4 m/s 758 mmHg 52%
14:00 +23°C° 0 mm 5 m/s 758 mmHg 51%
15:00 +22°C° 0 mm 4 m/s 758 mmHg 57%
16:00 +21°C° 0 mm 4 m/s 758 mmHg 63%
17:00 +19°C° 0 mm 3 m/s 758 mmHg 69%
18:00 +17°C° 0 mm 3 m/s 759 mmHg 77%
19:00 +15°C° 0 mm 2 m/s 759 mmHg 86%
20:00 +13°C° 0 mm 2 m/s 760 mmHg 94%
21:00 +13°C° 0 mm 2 m/s 759 mmHg 94%
22:00 +12°C° 0 mm 1 m/s 759 mmHg 94%
23:00 +12°C° 0 mm 1 m/s 759 mmHg 94%

17 Abril, Sábado

Tempo Temperatura Precipitação Vento Pressão Humidade
00:00 +12°C° 0 mm 1 m/s 760 mmHg 92%
01:00 +12°C° 0 mm 2 m/s 760 mmHg 90%
02:00 +12°C° 0 mm 2 m/s 760 mmHg 87%
03:00 +11°C° 0 mm 3 m/s 760 mmHg 76%
04:00 +10°C° 0 mm 4 m/s 760 mmHg 64%
05:00 +9°C° 0 mm 5 m/s 761 mmHg 53%
06:00 +10°C° 0 mm 5 m/s 761 mmHg 48%
07:00 +12°C° 0 mm 5 m/s 762 mmHg 43%
08:00 +13°C° 0 mm 6 m/s 762 mmHg 39%
09:00 +15°C° 0 mm 5 m/s 762 mmHg 36%
10:00 +17°C° 0 mm 5 m/s 763 mmHg 33%
11:00 +19°C° 0 mm 5 m/s 763 mmHg 30%
12:00 +20°C° 0 mm 4 m/s 762 mmHg 29%
13:00 +21°C° 0 mm 3 m/s 762 mmHg 28%
14:00 +22°C° 0 mm 3 m/s 762 mmHg 27%
15:00 +21°C° 0 mm 2 m/s 762 mmHg 34%
16:00 +20°C° 0 mm 2 m/s 762 mmHg 41%
17:00 +19°C° 0 mm 2 m/s 762 mmHg 49%
18:00 +17°C° 0 mm 2 m/s 763 mmHg 54%
19:00 +15°C° 0 mm 2 m/s 764 mmHg 60%
20:00 +13°C° 0 mm 2 m/s 764 mmHg 66%
21:00 +12°C° 0 mm 2 m/s 764 mmHg 66%
22:00 +12°C° 0 mm 2 m/s 764 mmHg 67%
23:00 +10°C° 0 mm 2 m/s 764 mmHg 67%

18 Abril, Domingo

Tempo Temperatura Precipitação Vento Pressão Humidade
00:00 +11°C° 0 mm 1 m/s 764 mmHg 67%
01:00 +10°C° 0 mm 1 m/s 764 mmHg 67%
02:00 +10°C° 0 mm 1 m/s 764 mmHg 68%
03:00 +10°C° 0 mm 1 m/s 763 mmHg 68%
04:00 +10°C° 0 mm 1 m/s 763 mmHg 68%
05:00 +9°C° 0 mm 1 m/s 763 mmHg 69%
06:00 +12°C° 0 mm 1 m/s 763 mmHg 62%
07:00 +15°C° 0 mm 1 m/s 764 mmHg 55%
08:00 +18°C° 0 mm 1 m/s 764 mmHg 49%
09:00 +20°C° 0 mm 1 m/s 764 mmHg 44%
10:00 +22°C° 0 mm 1 m/s 763 mmHg 40%
11:00 +24°C° 0 mm 1 m/s 763 mmHg 35%
12:00 +24°C° 0 mm 2 m/s 763 mmHg 35%
13:00 +24°C° 0 mm 2 m/s 762 mmHg 34%
14:00 +24°C° 0 mm 3 m/s 762 mmHg 34%
15:00 +22°C° 0 mm 3 m/s 762 mmHg 41%
16:00 +20°C° 0 mm 3 m/s 762 mmHg 48%
17:00 +18°C° 0 mm 4 m/s 762 mmHg 55%
18:00 +17°C° 0 mm 3 m/s 763 mmHg 62%
19:00 +14°C° 0 mm 3 m/s 763 mmHg 69%
20:00 +14°C° 0 mm 2 m/s 763 mmHg 76%
21:00 +13°C° 0 mm 2 m/s 763 mmHg 79%
22:00 +13°C° 0 mm 2 m/s 763 mmHg 83%
23:00 +12°C° 0 mm 1 m/s 763 mmHg 86%
Mostrar mais

Necessitamos do seu Consentimento

A Meteoprog e os seus Fornecedores de Serviços podem armazenar e aceder a dados pessoais como cookies, identificadores do dispositivo ou outras tecnologias semelhantes existentes no seu dispositivo e processar estes dados para personalizar conteúdos e anúncios, assim como funcionalidades nas redes sociais e análise de tráfego.

  • Armazenar e/ou aceder a informações no seu dispositivo

    Os cookies, identificadores do dispositivo ou outras informações podem ser armazenados ou acedidos no seu dispositivo, para os fins acima indicados.

  • Anúncios e conteúdos personalizados, medição de anúncios e conteúdos, dados sobre o público-alvo e desenvolvimento de produtos

    Os anúncios e os conteúdos podem ser personalizados com base num perfil. Podem ser adicionados dados adicionais para uma maior personalização dos anúncios e dos conteúdos. A eficácia dos anúncios e dos conteúdos pode ser medida. Podem ser obtidas informações sobre o público que visualizou os anúncios e os conteúdos. Estes dados podem ser usados para desenvolver ou melhorar sistemas, softwares ou a experiência do utilizador.

Ao clicar em "Eu concordo”, permitirá o uso de cookies, identificadores do dispositivo e web beacons mencionados ou outras tecnologias semelhantes. As configurações do navegador do seu dispositivo podem ser alteradas.

Para certos fins, podem ser invocados interesses legítimos ao invés de consentimento. Pode ler mais informação sobre este assunto na nossa Política de Privacidade e Cookies.